| time (UTC) | temp F | wind direction | speed MPH | gust MPH | rain 1hr in | rain 24hr in | rain mn in | humidity % | barometer mb |
| 20260505125015 | 53 | 137 | 0.0 | 4.0 | 0.00 | 0.00 | 0.00 | 62 | 1008.9 |
| 20260505124538 | 53 | 140 | 0.0 | 2.0 | 0.00 | 0.00 | 0.00 | 63 | 1008.8 |
| 20260505124012 | 53 | 113 | 0.0 | 2.0 | 0.00 | 0.00 | 0.00 | 65 | 1008.7 |
| 20260505123508 | 52 | 227 | 0.0 | 3.0 | 0.00 | 0.00 | 0.00 | 65 | 1008.6 |
| 20260505123008 | 52 | 158 | 0.0 | 3.0 | 0.00 | 0.00 | 0.00 | 65 | 1008.6 |
| 20260505122511 | 52 | 188 | 0.0 | 3.0 | 0.00 | 0.00 | 0.00 | 63 | 1008.5 |
| 20260505122012 | 52 | 187 | 1.0 | 3.0 | 0.00 | 0.00 | 0.00 | 62 | 1008.5 |
| 20260505121510 | 52 | 176 | 1.0 | 3.0 | 0.00 | 0.00 | 0.00 | 62 | 1008.6 |
| 20260505121005 | 52 | 221 | 0.0 | 3.0 | 0.00 | 0.00 | 0.00 | 61 | 1008.6 |
| 20260505120508 | 52 | 189 | 0.0 | 3.0 | 0.00 | 0.00 | 0.00 | 60 | 1008.7 |
| 20260505120023 | 52 | 147 | 0.0 | 3.0 | 0.00 | 0.00 | 0.00 | 60 | 1008.8 |
| 20260505115504 | 52 | 108 | 1.0 | 3.0 | 0.00 | 0.00 | 0.00 | 61 | 1008.8 |
| 20260505115004 | 52 | 111 | 1.0 | 3.0 | 0.00 | 0.00 | 0.00 | 62 | 1008.7 |
| 20260505114507 | 52 | 113 | 1.0 | 11.0 | 0.00 | 0.00 | 0.00 | 61 | 1008.6 |
| 20260505114004 | 52 | 142 | 1.0 | 11.0 | 0.00 | 0.00 | 0.00 | 62 | 1008.5 |
| 20260505113505 | 52 | 68 | 1.0 | 5.0 | 0.00 | 0.00 | 0.00 | 63 | 1008.5 |
| 20260505113013 | 52 | 184 | 1.0 | 5.0 | 0.00 | 0.00 | 0.00 | 63 | 1008.5 |
| 20260505112507 | 52 | 114 | 1.0 | 4.0 | 0.00 | 0.00 | 0.00 | 65 | 1008.5 |
| 20260505112005 | 52 | 279 | 1.0 | 4.0 | 0.00 | 0.00 | 0.00 | 67 | 1008.5 |
| 20260505111510 | 51 | 188 | 1.0 | 7.0 | 0.00 | 0.00 | 0.00 | 70 | 1008.5 |
| 20260505111006 | 52 | 198 | 1.0 | 9.0 | 0.00 | 0.00 | 0.00 | 69 | 1008.5 |
| 20260505110510 | 52 | 148 | 1.0 | 9.0 | 0.00 | 0.00 | 0.00 | 68 | 1008.5 |
| 20260505102008 | 54 | 225 | 0.0 | 2.0 | 0.00 | 0.00 | 0.00 | 61 | 1008.9 |
| 20260505101514 | 54 | 229 | 0.0 | 2.0 | 0.00 | 0.00 | 0.00 | 61 | 1008.9 |
| 20260505101002 | 54 | 231 | 0.0 | 2.0 | 0.00 | 0.00 | 0.00 | 60 | 1008.9 |
| 20260505100507 | 54 | 262 | 0.0 | 3.0 | 0.00 | 0.00 | 0.00 | 61 | 1008.9 |
| 20260505100031 | 54 | 279 | 0.0 | 3.0 | 0.00 | 0.00 | 0.00 | 61 | 1008.9 |
| 20260505095507 | 54 | 255 | 0.0 | 2.0 | 0.00 | 0.00 | 0.00 | 62 | 1009.0 |
| 20260505095005 | 54 | 251 | 0.0 | 2.0 | 0.00 | 0.00 | 0.00 | 63 | 1008.9 |
| 20260505094515 | 54 | 227 | 0.0 | 3.0 | 0.00 | 0.00 | 0.00 | 64 | 1009.0 |
| 20260505094009 | 54 | 234 | 0.0 | 3.0 | 0.00 | 0.00 | 0.00 | 64 | 1009.0 |
| 20260505093503 | 54 | 154 | 0.0 | 2.0 | 0.00 | 0.00 | 0.00 | 63 | 1009.0 |
| 20260505093008 | 54 | 236 | 0.0 | 2.0 | 0.00 | 0.00 | 0.00 | 63 | 1009.0 |
| 20260505092504 | 54 | 186 | 1.0 | 3.0 | 0.00 | 0.00 | 0.00 | 63 | 1009.0 |
| 20260505092007 | 54 | 190 | 1.0 | 3.0 | 0.00 | 0.00 | 0.00 | 63 | 1009.0 |
| 20260505091514 | 54 | 178 | 0.0 | 2.0 | 0.00 | 0.00 | 0.00 | 64 | 1008.9 |
| 20260505091005 | 54 | 196 | 0.0 | 2.0 | 0.00 | 0.00 | 0.00 | 64 | 1009.0 |
| 20260505090507 | 54 | 188 | 0.0 | 2.0 | 0.00 | 0.00 | 0.00 | 64 | 1009.0 |
| 20260505090015 | 54 | 229 | 0.0 | 4.0 | 0.00 | 0.00 | 0.00 | 64 | 1009.1 |
| 20260505085507 | 54 | 180 | 0.0 | 4.0 | 0.00 | 0.00 | 0.00 | 65 | 1009.0 |
| 20260505085011 | 53 | 212 | 1.0 | 2.0 | 0.00 | 0.00 | 0.00 | 65 | 1009.1 |
| 20260505084524 | 53 | 177 | 0.0 | 2.0 | 0.00 | 0.00 | 0.00 | 66 | 1009.2 |
| 20260505084003 | 54 | 185 | 0.0 | 5.0 | 0.00 | 0.00 | 0.00 | 66 | 1009.0 |
| 20260505083509 | 54 | 205 | 1.0 | 5.0 | 0.00 | 0.00 | 0.00 | 66 | 1009.0 |
| 20260505083034 | 54 | 175 | 1.0 | 4.0 | 0.00 | 0.00 | 0.00 | 64 | 1009.0 |
| 20260505082510 | 54 | 157 | 1.0 | 4.0 | 0.00 | 0.00 | 0.00 | 62 | 1009.0 |
| 20260505082008 | 54 | 191 | 1.0 | 4.0 | 0.00 | 0.00 | 0.00 | 62 | 1009.0 |
| 20260505081514 | 54 | 168 | 0.0 | 5.0 | 0.00 | 0.00 | 0.00 | 63 | 1009.1 |
| 20260505081007 | 54 | 169 | 1.0 | 11.0 | 0.00 | 0.00 | 0.00 | 62 | 1009.2 |
| 20260505080507 | 54 | 132 | 1.0 | 11.0 | 0.00 | 0.00 | 0.00 | 62 | 1009.2 |
| 20260505080012 | 54 | 74 | 1.0 | 6.0 | 0.00 | 0.00 | 0.00 | 63 | 1009.1 |
| 20260505075506 | 54 | 120 | 1.0 | 4.0 | 0.00 | 0.00 | 0.00 | 61 | 1009.0 |
| 20260505075006 | 55 | 164 | 1.0 | 7.0 | 0.00 | 0.00 | 0.00 | 55 | 1009.0 |
| 20260505074512 | 56 | 134 | 1.0 | 7.0 | 0.00 | 0.00 | 0.00 | 54 | 1009.0 |
| 20260505074008 | 56 | 109 | 1.0 | 7.0 | 0.00 | 0.00 | 0.00 | 52 | 1009.0 |
| 20260505073507 | 56 | 86 | 1.0 | 3.0 | 0.00 | 0.00 | 0.00 | 1009.0 | |
| 20260505073009 | 56 | 201 | 1.0 | 10.0 | 0.00 | 0.00 | 0.00 | 1008.9 | |
| 20260505072509 | 56 | 115 | 0.0 | 10.0 | 0.00 | 0.00 | 0.00 | 1008.9 | |
| 20260505072009 | 56 | 132 | 1.0 | 6.0 | 0.00 | 0.00 | 0.00 | 1008.8 | |
| 20260505071536 | 56 | 197 | 1.0 | 5.0 | 0.00 | 0.00 | 0.00 | 1008.8 | |
| 20260505071004 | 56 | 245 | 1.0 | 6.0 | 0.00 | 0.00 | 0.00 | 50 | 1008.7 |
| 20260505070506 | 56 | 113 | 1.0 | 11.0 | 0.00 | 0.00 | 0.00 | 50 | 1008.7 |
| 20260505070011 | 56 | 103 | 2.0 | 11.0 | 0.00 | 0.00 | 0.00 | 51 | 1008.6 |
| 20260505065504 | 56 | 110 | 2.0 | 8.0 | 0.00 | 0.00 | 0.00 | 51 | 1008.7 |
| 20260505065010 | 56 | 111 | 1.0 | 12.0 | 0.00 | 0.00 | 0.00 | 52 | 1008.5 |
| 20260505064515 | 56 | 87 | 1.0 | 12.0 | 0.00 | 0.00 | 0.00 | 51 | 1008.5 |
| 20260505064009 | 56 | 134 | 2.0 | 8.0 | 0.00 | 0.00 | 0.00 | 52 | 1008.5 |
| 20260505063507 | 56 | 150 | 1.0 | 9.0 | 0.00 | 0.00 | 0.00 | 52 | 1008.4 |
| 20260505063029 | 56 | 82 | 1.0 | 12.0 | 0.00 | 0.00 | 0.00 | 52 | 1008.5 |
| 20260505062507 | 56 | 128 | 4.0 | 12.0 | 0.00 | 0.00 | 0.00 | 52 | 1008.5 |
| 20260505062008 | 56 | 257 | 3.0 | 12.0 | 0.00 | 0.00 | 0.00 | 53 | 1008.4 |
| 20260505061521 | 56 | 145 | 2.0 | 17.0 | 0.00 | 0.00 | 0.00 | 53 | 1008.5 |
| 20260505061008 | 56 | 169 | 5.0 | 17.0 | 0.00 | 0.00 | 0.00 | 54 | 1008.5 |
| 20260505060510 | 56 | 163 | 2.0 | 19.0 | 0.00 | 0.00 | 0.00 | 54 | 1008.6 |
| 20260505060014 | 56 | 115 | 3.0 | 19.0 | 0.00 | 0.00 | 0.00 | 54 | 1008.6 |
| 20260505055507 | 56 | 135 | 2.0 | 11.0 | 0.00 | 0.00 | 0.00 | 54 | 1008.6 |
| 20260505055008 | 56 | 107 | 2.0 | 11.0 | 0.00 | 0.00 | 0.00 | 54 | 1008.7 |
| 20260505054535 | 56 | 107 | 2.0 | 7.0 | 0.00 | 0.00 | 0.00 | 53 | 1008.6 |
| 20260505054012 | 56 | 134 | 2.0 | 8.0 | 0.00 | 0.00 | 0.00 | 1008.5 | |
| 20260505053512 | 57 | 155 | 2.0 | 13.0 | 0.00 | 0.00 | 0.00 | 54 | 1008.5 |
| 20260505053021 | 57 | 114 | 2.0 | 13.0 | 0.00 | 0.00 | 0.00 | 54 | 1008.5 |
| 20260505052507 | 57 | 99 | 1.0 | 6.0 | 0.00 | 0.00 | 0.00 | 54 | 1008.7 |
| 20260505052009 | 57 | 113 | 1.0 | 7.0 | 0.00 | 0.00 | 0.00 | 54 | 1008.6 |
| 20260505051535 | 58 | 146 | 1.0 | 7.0 | 0.00 | 0.00 | 0.00 | 52 | 1008.5 |
| 20260505051009 | 58 | 126 | 1.0 | 14.0 | 0.00 | 0.00 | 0.00 | 51 | 1008.6 |
| 20260505050508 | 59 | 99 | 3.0 | 14.0 | 0.00 | 0.00 | 0.00 | 50 | 1008.3 |
| 20260505041531 | 61 | 163 | 1.0 | 7.0 | 0.00 | 0.00 | 0.00 | 41 | 1007.8 |
| 20260505041007 | 61 | 180 | 1.0 | 7.0 | 0.00 | 0.00 | 0.00 | 41 | 1007.8 |
| 20260505040509 | 61 | 178 | 1.0 | 9.0 | 0.00 | 0.00 | 0.00 | 42 | 1007.6 |
| 20260505040026 | 61 | 197 | 1.0 | 8.0 | 0.00 | 0.00 | 0.00 | 42 | 1007.5 |
| 20260505035509 | 61 | 181 | 2.0 | 8.0 | 0.00 | 0.00 | 0.00 | 43 | 1007.4 |
| 20260505035014 | 61 | 248 | 1.0 | 7.0 | 0.00 | 0.00 | 0.00 | 43 | 1007.4 |
| 20260505034528 | 61 | 161 | 3.0 | 9.0 | 0.00 | 0.00 | 0.00 | 43 | 1007.4 |
| 20260505034010 | 61 | 180 | 2.0 | 7.0 | 0.00 | 0.00 | 0.00 | 43 | 1007.4 |
| 20260505033509 | 61 | 200 | 3.0 | 9.0 | 0.00 | 0.00 | 0.00 | 43 | 1007.4 |
| 20260505033017 | 61 | 112 | 2.0 | 9.0 | 0.00 | 0.00 | 0.00 | 43 | 1007.4 |
| 20260505032512 | 61 | 179 | 1.0 | 8.0 | 0.00 | 0.00 | 0.00 | 42 | 1007.3 |
| 20260505032008 | 62 | 161 | 1.0 | 9.0 | 0.00 | 0.00 | 0.00 | 42 | 1007.3 |
| 20260505031527 | 62 | 77 | 2.0 | 9.0 | 0.00 | 0.00 | 0.00 | 41 | 1007.3 |
| 20260505031008 | 62 | 197 | 2.0 | 5.0 | 0.00 | 0.00 | 0.00 | 41 | 1007.3 |
| 20260505030508 | 62 | 163 | 2.0 | 7.0 | 0.00 | 0.00 | 0.00 | 40 | 1007.4 |
| 20260505030020 | 63 | 155 | 1.0 | 7.0 | 0.00 | 0.00 | 0.00 | 40 | 1007.3 |
| 20260505025514 | 63 | 183 | 1.0 | 6.0 | 0.00 | 0.00 | 0.00 | 39 | 1007.2 |
| 20260505025008 | 63 | 167 | 1.0 | 7.0 | 0.00 | 0.00 | 0.00 | 39 | 1007.1 |
| 20260505024518 | 63 | 116 | 2.0 | 8.0 | 0.00 | 0.00 | 0.00 | 39 | 1006.9 |
| 20260505024010 | 63 | 88 | 2.0 | 8.0 | 0.00 | 0.00 | 0.00 | 38 | 1006.9 |
| 20260505023508 | 63 | 175 | 1.0 | 8.0 | 0.00 | 0.00 | 0.00 | 38 | 1006.8 |
| 20260505023031 | 63 | 134 | 1.0 | 11.0 | 0.00 | 0.00 | 0.00 | 39 | 1006.8 |
| 20260505022507 | 63 | 130 | 1.0 | 11.0 | 0.00 | 0.00 | 0.00 | 39 | 1006.8 |
| 20260505022010 | 64 | 125 | 1.0 | 10.0 | 0.00 | 0.00 | 0.00 | 38 | 1006.8 |
| 20260505021519 | 64 | 201 | 2.0 | 10.0 | 0.00 | 0.00 | 0.00 | 37 | 1006.8 |
| 20260505021007 | 64 | 136 | 1.0 | 8.0 | 0.00 | 0.00 | 0.00 | 36 | 1006.8 |
| 20260505020509 | 65 | 179 | 1.0 | 8.0 | 0.00 | 0.00 | 0.00 | 36 | 1006.7 |
| 20260505020020 | 65 | 217 | 1.0 | 2.0 | 0.00 | 0.00 | 0.00 | 35 | 1006.7 |
| 20260505015508 | 65 | 184 | 0.0 | 2.0 | 0.00 | 0.00 | 0.00 | 36 | 1006.7 |
| 20260505015008 | 65 | 184 | 0.0 | 2.0 | 0.00 | 0.00 | 0.00 | 36 | 1006.7 |
| 20260505014524 | 65 | 190 | 0.0 | 2.0 | 0.00 | 0.00 | 0.00 | 35 | 1006.7 |
| 20260505014010 | 65 | 184 | 0.0 | 2.0 | 0.00 | 0.00 | 0.00 | 35 | 1006.8 |
| 20260505013509 | 65 | 128 | 0.0 | 2.0 | 0.00 | 0.00 | 0.00 | 35 | 1006.8 |
| 20260505013024 | 65 | 108 | 0.0 | 2.0 | 0.00 | 0.00 | 0.00 | 35 | 1006.9 |
| 20260505012507 | 65 | 108 | 0.0 | 2.0 | 0.00 | 0.00 | 0.00 | 35 | 1007.0 |
| 20260505012008 | 65 | 108 | 0.0 | 2.0 | 0.00 | 0.00 | 0.00 | 34 | 1007.0 |
| 20260505011520 | 65 | 105 | 0.0 | 2.0 | 0.00 | 0.00 | 0.00 | 34 | 1007.1 |
| 20260505011008 | 65 | 101 | 0.0 | 2.0 | 0.00 | 0.00 | 0.00 | 36 | 1007.1 |
| 20260505010508 | 65 | 87 | 0.0 | 2.0 | 0.00 | 0.00 | 0.00 | 35 | 1007.1 |
| 20260505010017 | 65 | 87 | 0.0 | 2.0 | 0.00 | 0.00 | 0.00 | 35 | 1007.2 |
| 20260505005508 | 65 | 75 | 0.0 | 2.0 | 0.00 | 0.00 | 0.00 | 35 | 1007.3 |
| 20260505005009 | 65 | 114 | 0.0 | 2.0 | 0.00 | 0.00 | 0.00 | 35 | 1007.3 |
| 20260505004525 | 65 | 130 | 1.0 | 2.0 | 0.00 | 0.00 | 0.00 | 35 | 1007.4 |
| 20260505004007 | 65 | 117 | 1.0 | 3.0 | 0.00 | 0.00 | 0.00 | 36 | 1007.4 |
| 20260505003504 | 65 | 106 | 2.0 | 3.0 | 0.00 | 0.00 | 0.00 | 36 | 1007.4 |
| 20260505003008 | 66 | 113 | 2.0 | 3.0 | 0.00 | 0.00 | 0.00 | 36 | 1007.4 |
| 20260505002504 | 66 | 124 | 1.0 | 7.0 | 0.00 | 0.00 | 0.00 | 37 | 1007.4 |
| 20260505002004 | 66 | 114 | 2.0 | 7.0 | 0.00 | 0.00 | 0.00 | 35 | 1007.5 |
| 20260505001508 | 66 | 59 | 2.0 | 4.0 | 0.00 | 0.00 | 0.00 | 35 | 1007.6 |
| 20260505001004 | 65 | 106 | 2.0 | 4.0 | 0.00 | 0.00 | 0.00 | 35 | 1007.6 |
| 20260505000504 | 65 | 86 | 2.0 | 5.0 | 0.00 | 0.00 | 0.00 | 36 | 1007.4 |
| 20260505000011 | 65 | 59 | 2.0 | 5.0 | 0.00 | 0.00 | 0.00 | 35 | 1007.5 |
| 20260504235507 | 65 | 98 | 1.0 | 4.0 | 0.00 | 0.00 | 0.00 | 35 | 1007.6 |
| 20260504235007 | 65 | 103 | 1.0 | 4.0 | 0.00 | 0.00 | 0.00 | 36 | 1007.7 |
| 20260504234507 | 65 | 90 | 2.0 | 3.0 | 0.00 | 0.00 | 0.00 | 36 | 1007.8 |
| 20260504234004 | 66 | 142 | 1.0 | 4.0 | 0.00 | 0.00 | 0.00 | 36 | 1007.8 |
| 20260504233505 | 66 | 76 | 2.0 | 4.0 | 0.00 | 0.00 | 0.00 | 34 | 1007.8 |
| 20260504233007 | 68 | 101 | 1.0 | 2.0 | 0.00 | 0.00 | 0.00 | 32 | 1007.8 |
| 20260504232505 | 68 | 148 | 1.0 | 3.0 | 0.00 | 0.00 | 0.00 | 31 | 1007.8 |
| 20260504232007 | 68 | 75 | 1.0 | 3.0 | 0.00 | 0.00 | 0.00 | 31 | 1007.8 |
| 20260504231510 | 68 | 79 | 1.0 | 3.0 | 0.00 | 0.00 | 0.00 | 31 | 1007.7 |
| 20260504231006 | 69 | 146 | 1.0 | 4.0 | 0.00 | 0.00 | 0.00 | 31 | 1007.6 |
| 20260504230507 | 68 | 144 | 2.0 | 4.0 | 0.00 | 0.00 | 0.00 | 32 | 1007.6 |
| 20260504230011 | 67 | 142 | 1.0 | 3.0 | 0.00 | 0.00 | 0.00 | 33 | 1007.6 |
| 20260504225504 | 66 | 107 | 1.0 | 4.0 | 0.00 | 0.00 | 0.00 | 33 | 1007.7 |
| 20260504225007 | 66 | 98 | 2.0 | 7.0 | 0.00 | 0.00 | 0.00 | 35 | 1007.8 |
| 20260504224515 | 67 | 146 | 2.0 | 7.0 | 0.00 | 0.00 | 0.00 | 34 | 1007.7 |
| 20260504224006 | 69 | 143 | 2.0 | 4.0 | 0.00 | 0.00 | 0.00 | 30 | 1007.7 |
| 20260504223509 | 69 | 145 | 1.0 | 2.0 | 0.00 | 0.00 | 0.00 | 28 | 1007.6 |
| 20260504223006 | 69 | 279 | 0.0 | 2.0 | 0.00 | 0.00 | 0.00 | 28 | 1007.6 |
| 20260504222505 | 69 | 281 | 0.0 | 2.0 | 0.00 | 0.00 | 0.00 | 28 | 1007.5 |
| 20260504222009 | 69 | 281 | 0.0 | 2.0 | 0.00 | 0.00 | 0.00 | 28 | 1007.6 |
| 20260504221507 | 68 | 284 | 0.0 | 3.0 | 0.00 | 0.00 | 0.00 | 28 | 1007.6 |
| 20260504221005 | 68 | 256 | 1.0 | 4.0 | 0.00 | 0.00 | 0.00 | 30 | 1007.6 |
| 20260504220507 | 68 | 291 | 1.0 | 7.0 | 0.00 | 0.00 | 0.00 | 30 | 1007.7 |
| 20260504220010 | 68 | 299 | 1.0 | 7.0 | 0.00 | 0.00 | 0.00 | 31 | 1007.7 |
| 20260504215507 | 68 | 297 | 0.0 | 3.0 | 0.00 | 0.00 | 0.00 | 31 | 1007.7 |
| 20260504215007 | 68 | 271 | 1.0 | 3.0 | 0.00 | 0.00 | 0.00 | 30 | 1007.8 |
| 20260504214510 | 68 | 332 | 2.0 | 6.0 | 0.00 | 0.00 | 0.00 | 30 | 1007.9 |
| 20260504214002 | 68 | 287 | 2.0 | 7.0 | 0.00 | 0.00 | 0.00 | 29 | 1007.9 |
| 20260504213503 | 69 | 336 | 1.0 | 7.0 | 0.00 | 0.00 | 0.00 | 30 | 1007.8 |
| 20260504213010 | 69 | 285 | 1.0 | 6.0 | 0.00 | 0.00 | 0.00 | 30 | 1007.9 |
| 20260504212507 | 69 | 270 | 2.0 | 7.0 | 0.00 | 0.00 | 0.00 | 31 | 1007.9 |
| 20260504212003 | 69 | 333 | 1.0 | 7.0 | 0.00 | 0.00 | 0.00 | 30 | 1008.0 |
| 20260504211510 | 69 | 288 | 1.0 | 4.0 | 0.00 | 0.00 | 0.00 | 31 | 1008.1 |
| 20260504211003 | 69 | 321 | 1.0 | 5.0 | 0.00 | 0.00 | 0.00 | 31 | 1008.2 |
| 20260504210504 | 70 | 309 | 2.0 | 5.0 | 0.00 | 0.00 | 0.00 | 30 | 1008.2 |
| 20260504210018 | 70 | 288 | 1.0 | 3.0 | 0.00 | 0.00 | 0.00 | 30 | 1008.2 |
| 20260504205507 | 70 | 320 | 1.0 | 3.0 | 0.00 | 0.00 | 0.00 | 32 | 1008.2 |
| 20260504205007 | 70 | 321 | 0.0 | 3.0 | 0.00 | 0.00 | 0.00 | 31 | 1008.2 |
| 20260504204512 | 69 | 306 | 0.0 | 2.0 | 0.00 | 0.00 | 0.00 | 33 | 1008.3 |
| 20260504204006 | 70 | 306 | 0.0 | 4.0 | 0.00 | 0.00 | 0.00 | 32 | 1008.3 |
| 20260504203506 | 70 | 326 | 1.0 | 4.0 | 0.00 | 0.00 | 0.00 | 31 | 1008.4 |
| 20260504203005 | 70 | 323 | 1.0 | 3.0 | 0.00 | 0.00 | 0.00 | 31 | 1008.3 |
| 20260504202506 | 70 | 48 | 0.0 | 3.0 | 0.00 | 0.00 | 0.00 | 28 | 1008.4 |
| 20260504202007 | 70 | 302 | 1.0 | 4.0 | 0.00 | 0.00 | 0.00 | 30 | 1008.5 |
| 20260504201512 | 70 | 325 | 0.0 | 4.0 | 0.00 | 0.00 | 0.00 | 30 | 1008.5 |
| 20260504201003 | 69 | 268 | 2.0 | 4.0 | 0.00 | 0.00 | 0.00 | 31 | 1008.5 |
| 20260504200507 | 69 | 316 | 1.0 | 6.0 | 0.00 | 0.00 | 0.00 | 32 | 1008.5 |
| 20260504200015 | 69 | 325 | 2.0 | 8.0 | 0.00 | 0.00 | 0.00 | 31 | 1008.5 |
| 20260504195504 | 69 | 342 | 1.0 | 8.0 | 0.00 | 0.00 | 0.00 | 32 | 1008.5 |
| 20260504195007 | 70 | 12 | 0.0 | 3.0 | 0.00 | 0.00 | 0.00 | 31 | 1008.6 |
| 20260504194516 | 70 | 24 | 1.0 | 4.0 | 0.00 | 0.00 | 0.00 | 32 | 1008.5 |
| 20260504194007 | 70 | 69 | 1.0 | 5.0 | 0.00 | 0.00 | 0.00 | 33 | 1008.6 |
| 20260504193511 | 70 | 335 | 1.0 | 6.0 | 0.00 | 0.00 | 0.00 | 32 | 1008.7 |
| 20260504193015 | 70 | 317 | 1.0 | 8.0 | 0.00 | 0.00 | 0.00 | 33 | 1008.7 |
| 20260504192509 | 69 | 348 | 2.0 | 8.0 | 0.00 | 0.00 | 0.00 | 31 | 1008.7 |
| 20260504192008 | 71 | 351 | 3.0 | 9.0 | 0.00 | 0.00 | 0.00 | 30 | 1008.8 |
| 20260504191514 | 72 | 338 | 3.0 | 8.0 | 0.00 | 0.00 | 0.00 | 31 | 1008.7 |
| 20260504191009 | 72 | 352 | 3.0 | 8.0 | 0.00 | 0.00 | 0.00 | 30 | 1008.8 |
| 20260504190510 | 72 | 351 | 3.0 | 8.0 | 0.00 | 0.00 | 0.00 | 30 | 1009.0 |
| 20260504190011 | 72 | 335 | 1.0 | 6.0 | 0.00 | 0.00 | 0.00 | 30 | 1009.1 |
| 20260504185507 | 72 | 296 | 0.0 | 6.0 | 0.00 | 0.00 | 0.00 | 30 | 1009.1 |
| 20260504185005 | 71 | 192 | 1.0 | 7.0 | 0.00 | 0.00 | 0.00 | 32 | 1009.2 |
| 20260504184520 | 70 | 321 | 2.0 | 7.0 | 0.00 | 0.00 | 0.00 | 31 | 1009.2 |
| 20260504184009 | 70 | 5 | 0.0 | 2.0 | 0.00 | 0.00 | 0.00 | 30 | 1009.2 |
| 20260504183506 | 70 | 238 | 0.0 | 2.0 | 0.00 | 0.00 | 0.00 | 29 | 1009.2 |
| 20260504183024 | 70 | 153 | 0.0 | 2.0 | 0.00 | 0.00 | 0.00 | 31 | 1009.2 |
| 20260504182504 | 69 | 127 | 0.0 | 2.0 | 0.00 | 0.00 | 0.00 | 31 | 1009.3 |
| 20260504182009 | 69 | 84 | 1.0 | 6.0 | 0.00 | 0.00 | 0.00 | 29 | 1009.4 |
| 20260504181514 | 70 | 120 | 0.0 | 6.0 | 0.00 | 0.00 | 0.00 | 29 | 1009.5 |
| 20260504181006 | 70 | 173 | 0.0 | 2.0 | 0.00 | 0.00 | 0.00 | 31 | 1009.5 |
| 20260504180504 | 70 | 157 | 0.0 | 4.0 | 0.00 | 0.00 | 0.00 | 30 | 1009.5 |
| 20260504180017 | 70 | 188 | 1.0 | 4.0 | 0.00 | 0.00 | 0.00 | 30 | 1009.6 |
| 20260504175507 | 69 | 148 | 0.0 | 3.0 | 0.00 | 0.00 | 0.00 | 30 | 1009.7 |
| 20260504175004 | 70 | 148 | 1.0 | 3.0 | 0.00 | 0.00 | 0.00 | 30 | 1009.7 |
| 20260504174511 | 69 | 183 | 0.0 | 3.0 | 0.00 | 0.00 | 0.00 | 32 | 1009.8 |
| 20260504174006 | 69 | 139 | 1.0 | 3.0 | 0.00 | 0.00 | 0.00 | 31 | 1009.8 |
| 20260504173512 | 69 | 139 | 1.0 | 3.0 | 0.00 | 0.00 | 0.00 | 32 | 1009.8 |
| 20260504173014 | 69 | 142 | 1.0 | 3.0 | 0.00 | 0.00 | 0.00 | 33 | 1009.9 |
| 20260504172512 | 68 | 134 | 0.0 | 3.0 | 0.00 | 0.00 | 0.00 | 33 | 1009.9 |
| 20260504172011 | 67 | 142 | 1.0 | 4.0 | 0.00 | 0.00 | 0.00 | 33 | 1009.9 |
| 20260504171508 | 67 | 144 | 2.0 | 4.0 | 0.00 | 0.00 | 0.00 | 33 | 1010.0 |
| 20260504171011 | 67 | 207 | 0.0 | 4.0 | 0.00 | 0.00 | 0.00 | 34 | 1010.0 |
| 20260504170508 | 67 | 135 | 1.0 | 3.0 | 0.00 | 0.00 | 0.00 | 33 | 1010.0 |
| 20260504151007 | 63 | 179 | 1.0 | 9.0 | 0.00 | 0.00 | 0.00 | 39 | 1010.3 |
| 20260504150506 | 63 | 113 | 1.0 | 4.0 | 0.00 | 0.00 | 0.00 | 40 | 1010.3 |
| 20260504141013 | 61 | 163 | 1.0 | 8.0 | 0.00 | 0.00 | 0.00 | 42 | 1010.3 |
| 20260504140503 | 60 | 121 | 1.0 | 8.0 | 0.00 | 0.00 | 0.00 | 43 | 1010.3 |
| 20260504130507 | 57 | 187 | 1.0 | 6.0 | 0.00 | 0.00 | 0.00 | 47 | 1010.1 |